Location: Canyon City
(32.5951°N, 116.5278°W)
Time: 01:35:19
(UTC+00:00)

Cosmos 1726 Rocket - Pass Details

Date: 08 September 2024
Orbit: 599 x 624 km, 82.5° (Epoch: 10 October)

Event Time Altitude Azimuth Distance (km) Brightness Sun altitude
Rises 12:05:52 0° 174° (S) 2,830 6.8 -17.2°
Reaches altitude 10° 12:08:06 10° 170° (S) 1,934 6.0 -16.8°
Maximum altitude 12:12:15 53° 93° (E) 743 4.3 -16.0°
Drops below altitude 10° 12:16:28 10° 17° (NNE) 1,957 6.6 -15.1°
Sets 12:18:44 0° 13° (NNE) 2,869 7.4 -14.7°
